| time (UTC) | temp F | wind direction | speed MPH | gust MPH | rain 1hr in | rain 24hr in | rain mn in | humidity % | barometer mb |
| 20260505230231 | 55 | 12 | 2.0 | 3.0 | 0.00 | 0.00 | 0.00 | 36 | 1007.4 |
| 20260505225728 | 55 | 25 | 4.0 | 5.0 | 0.00 | 0.00 | 0.00 | 36 | 1007.5 |
| 20260505225225 | 55 | 297 | 0.0 | 5.0 | 0.00 | 0.00 | 0.00 | 34 | 1007.6 |
| 20260505224720 | 55 | 310 | 0.0 | 3.0 | 0.00 | 0.00 | 0.00 | 33 | 1007.5 |
| 20260505224218 | 55 | 329 | 2.0 | 3.0 | 0.00 | 0.00 | 0.00 | 33 | 1007.5 |
| 20260505223715 | 55 | 23 | 1.0 | 3.0 | 0.00 | 0.00 | 0.00 | 34 | 1007.6 |
| 20260505223211 | 55 | 15 | 1.0 | 2.0 | 0.00 | 0.00 | 0.00 | 36 | 1007.5 |
| 20260505222707 | 55 | 293 | 2.0 | 4.0 | 0.00 | 0.00 | 0.00 | 34 | 1007.6 |
| 20260505222203 | 55 | 300 | 2.0 | 2.0 | 0.00 | 0.00 | 0.00 | 35 | 1007.4 |
| 20260505221701 | 55 | 179 | 2.0 | 5.0 | 0.00 | 0.00 | 0.00 | 33 | 1007.5 |
| 20260505221157 | 55 | 51 | 0.0 | 4.0 | 0.00 | 0.00 | 0.00 | 36 | 1007.4 |
| 20260505220654 | 55 | 310 | 0.0 | 2.0 | 0.00 | 0.00 | 0.00 | 35 | 1007.5 |
| 20260505220152 | 55 | 333 | 1.0 | 4.0 | 0.00 | 0.00 | 0.00 | 33 | 1007.7 |
| 20260505215649 | 55 | 4 | 1.0 | 4.0 | 0.00 | 0.00 | 0.00 | 33 | 1007.8 |
| 20260505215147 | 56 | 276 | 4.0 | 4.0 | 0.00 | 0.00 | 0.00 | 33 | 1007.8 |
| 20260505214645 | 56 | 0 | 0.0 | 5.0 | 0.00 | 0.00 | 0.00 | 34 | 1007.6 |
| 20260505214142 | 56 | 313 | 1.0 | 2.0 | 0.00 | 0.00 | 0.00 | 34 | 1007.6 |
| 20260505213640 | 55 | 295 | 2.0 | 6.0 | 0.00 | 0.00 | 0.00 | 33 | 1007.5 |
| 20260505213136 | 55 | 299 | 2.0 | 3.0 | 0.00 | 0.00 | 0.00 | 32 | 1007.5 |
| 20260505212632 | 55 | 316 | 3.0 | 5.0 | 0.00 | 0.00 | 0.00 | 32 | 1007.7 |
| 20260505212130 | 56 | 5 | 2.0 | 6.0 | 0.00 | 0.00 | 0.00 | 30 | 1007.7 |
| 20260505211626 | 57 | 295 | 3.0 | 4.0 | 0.00 | 0.00 | 0.00 | 31 | 1007.5 |
| 20260505211124 | 57 | 47 | 0.0 | 2.0 | 0.00 | 0.00 | 0.00 | 33 | 1007.6 |
| 20260505210621 | 56 | 174 | 0.0 | 4.0 | 0.00 | 0.00 | 0.00 | 33 | 1007.5 |
| 20260505210117 | 56 | 326 | 3.0 | 5.0 | 0.00 | 0.00 | 0.00 | 30 | 1007.7 |
| 20260505205615 | 56 | 345 | 2.0 | 5.0 | 0.00 | 0.00 | 0.00 | 32 | 1007.4 |
| 20260505205113 | 56 | 18 | 3.0 | 5.0 | 0.00 | 0.00 | 0.00 | 30 | 1007.4 |
| 20260505204609 | 56 | 250 | 4.0 | 6.0 | 0.00 | 0.00 | 0.00 | 31 | 1007.7 |
| 20260505204107 | 56 | 290 | 2.0 | 4.0 | 0.00 | 0.00 | 0.00 | 32 | 1007.7 |
| 20260505203604 | 56 | 245 | 3.0 | 5.0 | 0.00 | 0.00 | 0.00 | 31 | 1007.8 |
| 20260505203101 | 56 | 145 | 2.0 | 4.0 | 0.00 | 0.00 | 0.00 | 33 | 1007.9 |
| 20260505202556 | 56 | 228 | 1.0 | 4.0 | 0.00 | 0.00 | 0.00 | 32 | 1008.1 |
| 20260505202053 | 57 | 146 | 0.0 | 5.0 | 0.00 | 0.00 | 0.00 | 31 | 1007.8 |
| 20260505201549 | 57 | 180 | 2.0 | 2.0 | 0.00 | 0.00 | 0.00 | 33 | 1007.8 |
| 20260505201047 | 56 | 324 | 2.0 | 4.0 | 0.00 | 0.00 | 0.00 | 35 | 1007.9 |
| 20260505200545 | 56 | 4 | 3.0 | 5.0 | 0.00 | 0.00 | 0.00 | 33 | 1007.6 |
| 20260505200042 | 56 | 333 | 2.0 | 4.0 | 0.00 | 0.00 | 0.00 | 32 | 1008.1 |
| 20260505195538 | 57 | 260 | 5.0 | 6.0 | 0.00 | 0.00 | 0.00 | 30 | 1007.9 |
| 20260505195035 | 56 | 307 | 2.0 | 3.0 | 0.00 | 0.00 | 0.00 | 33 | 1007.8 |
| 20260505194532 | 56 | 264 | 0.0 | 5.0 | 0.00 | 0.00 | 0.00 | 30 | 1007.8 |
| 20260505194027 | 56 | 33 | 1.0 | 3.0 | 0.00 | 0.00 | 0.00 | 29 | 1008.2 |
| 20260505193525 | 56 | 248 | 2.0 | 4.0 | 0.00 | 0.00 | 0.00 | 29 | 1007.9 |
| 20260505193022 | 56 | 284 | 0.0 | 5.0 | 0.00 | 0.00 | 0.00 | 28 | 1008.2 |
| 20260505192521 | 56 | 269 | 2.0 | 5.0 | 0.00 | 0.00 | 0.00 | 28 | 1007.8 |
| 20260505192018 | 57 | 330 | 2.0 | 6.0 | 0.00 | 0.00 | 0.00 | 29 | 1008.2 |
| 20260505191516 | 57 | 263 | 2.0 | 4.0 | 0.00 | 0.00 | 0.00 | 31 | 1008.4 |
| 20260505191014 | 57 | 246 | 0.0 | 6.0 | 0.00 | 0.00 | 0.00 | 32 | 1008.4 |
| 20260505190508 | 57 | 334 | 3.0 | 4.0 | 0.00 | 0.00 | 0.00 | 29 | 1008.3 |
| 20260505190004 | 57 | 274 | 3.0 | 7.0 | 0.00 | 0.00 | 0.00 | 30 | 1008.3 |
| 20260505185501 | 56 | 135 | 0.0 | 3.0 | 0.00 | 0.00 | 0.00 | 33 | 1008.1 |
| 20260505184957 | 56 | 13 | 2.0 | 5.0 | 0.00 | 0.00 | 0.00 | 30 | 1007.9 |
| 20260505184455 | 57 | 6 | 2.0 | 5.0 | 0.00 | 0.00 | 0.00 | 32 | 1008.3 |
| 20260505183950 | 56 | 329 | 0.0 | 6.0 | 0.00 | 0.00 | 0.00 | 33 | 1007.8 |
| 20260505183448 | 57 | 30 | 2.0 | 3.0 | 0.00 | 0.00 | 0.00 | 31 | 1007.9 |
| 20260505182944 | 56 | 348 | 2.0 | 6.0 | 0.00 | 0.00 | 0.00 | 32 | 1008.3 |
| 20260505182442 | 56 | 276 | 2.0 | 10.0 | 0.00 | 0.00 | 0.00 | 32 | 1008.1 |
| 20260505181938 | 56 | 346 | 2.0 | 4.0 | 0.00 | 0.00 | 0.00 | 30 | 1008.1 |
| 20260505181435 | 56 | 280 | 4.0 | 7.0 | 0.00 | 0.00 | 0.00 | 30 | 1007.9 |
| 20260505180932 | 57 | 338 | 3.0 | 6.0 | 0.00 | 0.00 | 0.00 | 30 | 1007.7 |
| 20260505180428 | 58 | 276 | 5.0 | 8.0 | 0.00 | 0.00 | 0.00 | 29 | 1007.9 |
| 20260505175925 | 58 | 260 | 4.0 | 4.0 | 0.00 | 0.00 | 0.00 | 31 | 1007.6 |
| 20260505175421 | 56 | 317 | 1.0 | 7.0 | 0.00 | 0.00 | 0.00 | 32 | 1007.8 |
| 20260505174918 | 56 | 306 | 3.0 | 5.0 | 0.00 | 0.00 | 0.00 | 32 | 1007.7 |
| 20260505174415 | 57 | 358 | 2.0 | 6.0 | 0.00 | 0.00 | 0.00 | 31 | 1007.8 |
| 20260505173911 | 57 | 218 | 0.0 | 4.0 | 0.00 | 0.00 | 0.00 | 33 | 1007.9 |
| 20260505173408 | 56 | 263 | 1.0 | 8.0 | 0.00 | 0.00 | 0.00 | 33 | 1007.4 |
| 20260505172905 | 56 | 272 | 4.0 | 5.0 | 0.00 | 0.00 | 0.00 | 34 | 1007.7 |
| 20260505172403 | 56 | 303 | 2.0 | 5.0 | 0.00 | 0.00 | 0.00 | 34 | 1007.7 |
| 20260505171902 | 56 | 203 | 2.0 | 4.0 | 0.00 | 0.00 | 0.00 | 34 | 1007.8 |
| 20260505171359 | 57 | 262 | 4.0 | 5.0 | 0.00 | 0.00 | 0.00 | 34 | 1007.8 |
| 20260505170856 | 55 | 148 | 1.0 | 4.0 | 0.00 | 0.00 | 0.00 | 37 | 1007.4 |
| 20260505170353 | 55 | 234 | 1.0 | 2.0 | 0.00 | 0.00 | 0.00 | 37 | 1007.6 |
| 20260505165848 | 55 | 301 | 2.0 | 5.0 | 0.00 | 0.00 | 0.00 | 35 | 1007.8 |
| 20260505165344 | 54 | 290 | 0.0 | 4.0 | 0.00 | 0.00 | 0.00 | 36 | 1007.7 |
| 20260505164840 | 54 | 259 | 0.0 | 4.0 | 0.00 | 0.00 | 0.00 | 34 | 1007.9 |
| 20260505164336 | 55 | 260 | 2.0 | 6.0 | 0.00 | 0.00 | 0.00 | 33 | 1007.9 |
| 20260505163835 | 55 | 274 | 4.0 | 6.0 | 0.00 | 0.00 | 0.00 | 35 | 1007.9 |
| 20260505163334 | 55 | 112 | 1.0 | 2.0 | 0.00 | 0.00 | 0.00 | 37 | 1007.7 |
| 20260505162832 | 54 | 265 | 0.0 | 8.0 | 0.00 | 0.00 | 0.00 | 37 | 1007.7 |
| 20260505162328 | 53 | 326 | 0.0 | 5.0 | 0.00 | 0.00 | 0.00 | 39 | 1007.7 |
| 20260505161825 | 54 | 262 | 0.0 | 3.0 | 0.00 | 0.00 | 0.00 | 36 | 1007.5 |
| 20260505161322 | 53 | 300 | 2.0 | 4.0 | 0.00 | 0.00 | 0.00 | 38 | 1007.7 |
| 20260505160819 | 53 | 335 | 4.0 | 5.0 | 0.00 | 0.00 | 0.00 | 36 | 1007.6 |
| 20260505160317 | 52 | 268 | 1.0 | 2.0 | 0.00 | 0.00 | 0.00 | 36 | 1007.8 |
| 20260505153256 | 52 | 2 | 5.0 | 8.0 | 0.00 | 0.00 | 0.00 | 39 | 1007.5 |
| 20260505152753 | 52 | 1 | 1.0 | 3.0 | 0.00 | 0.00 | 0.00 | 41 | 1007.4 |
| 20260505152249 | 52 | 166 | 0.0 | 2.0 | 0.00 | 0.00 | 0.00 | 44 | 1007.3 |
| 20260505151743 | 52 | 333 | 3.0 | 4.0 | 0.00 | 0.00 | 0.00 | 41 | 1007.4 |
| 20260505151241 | 52 | 265 | 3.0 | 4.0 | 0.00 | 0.00 | 0.00 | 42 | 1007.5 |
| 20260505150738 | 51 | 22 | 2.0 | 2.0 | 0.00 | 0.00 | 0.00 | 45 | 1007.8 |
| 20260505150236 | 51 | 321 | 2.0 | 4.0 | 0.00 | 0.00 | 0.00 | 43 | 1007.5 |
| 20260505140205 | 50 | 269 | 1.0 | 2.0 | 0.00 | 0.00 | 0.00 | 45 | 1007.8 |
| 20260505130129 | 49 | 19 | 0.0 | 3.0 | 0.00 | 0.00 | 0.00 | 47 | 1007.9 |
| 20260505124619 | 49 | 55 | 0.0 | 1.0 | 0.00 | 0.00 | 0.00 | 49 | 1007.7 |
| 20260505124115 | 49 | 32 | 2.0 | 2.0 | 0.00 | 0.00 | 0.00 | 49 | 1007.7 |
| 20260505123611 | 49 | 67 | 0.0 | 2.0 | 0.00 | 0.00 | 0.00 | 52 | 1007.4 |
| 20260505123108 | 49 | 66 | 2.0 | 3.0 | 0.00 | 0.00 | 0.00 | 50 | 1007.5 |
| 20260505122605 | 48 | 45 | 2.0 | 3.0 | 0.00 | 0.00 | 0.00 | 50 | 1007.4 |
| 20260505122102 | 48 | 309 | 1.0 | 2.0 | 0.00 | 0.00 | 0.00 | 51 | 1007.7 |
| 20260505121558 | 48 | 33 | 2.0 | 3.0 | 0.00 | 0.00 | 0.00 | 52 | 1007.7 |
| 20260505121055 | 48 | 65 | 0.0 | 2.0 | 0.00 | 0.00 | 0.00 | 53 | 1007.3 |
| 20260505120551 | 48 | 54 | 2.0 | 3.0 | 0.00 | 0.00 | 0.00 | 53 | 1007.1 |
| 20260505120047 | 48 | 55 | 0.0 | 3.0 | 0.00 | 0.00 | 0.00 | 52 | 1007.5 |
| 20260505115542 | 48 | 13 | 0.0 | 2.0 | 0.00 | 0.00 | 0.00 | 51 | 1007.7 |
| 20260505115039 | 48 | 30 | 2.0 | 2.0 | 0.00 | 0.00 | 0.00 | 51 | 1007.5 |
| 20260505114536 | 48 | 34 | 1.0 | 2.0 | 0.00 | 0.00 | 0.00 | 51 | 1007.2 |
| 20260505114032 | 48 | 54 | 2.0 | 2.0 | 0.00 | 0.00 | 0.00 | 51 | 1007.2 |
| 20260505113529 | 48 | 44 | 0.0 | 1.0 | 0.00 | 0.00 | 0.00 | 50 | 1006.8 |
| 20260505113026 | 48 | 11 | 2.0 | 4.0 | 0.00 | 0.00 | 0.00 | 49 | 1006.3 |
| 20260505112523 | 48 | 45 | 2.0 | 4.0 | 0.00 | 0.00 | 0.00 | 49 | 1006.2 |
| 20260505112021 | 48 | 318 | 0.0 | 5.0 | 0.00 | 0.00 | 0.00 | 49 | 1006.3 |
| 20260505111519 | 48 | 6 | 1.0 | 3.0 | 0.00 | 0.00 | 0.00 | 48 | 1005.6 |
| 20260505111016 | 49 | 16 | 3.0 | 5.0 | 0.00 | 0.00 | 0.00 | 47 | 1005.6 |
| 20260505110513 | 49 | 11 | 3.0 | 11.0 | 0.00 | 0.00 | 0.00 | 48 | 1005.5 |
| 20260505101945 | 50 | 14 | 3.0 | 6.0 | 0.00 | 0.00 | 0.00 | 50 | 1005.5 |
| 20260505101443 | 50 | 310 | 1.0 | 4.0 | 0.00 | 0.00 | 0.00 | 51 | 1005.4 |
| 20260505100940 | 50 | 343 | 2.0 | 4.0 | 0.00 | 0.00 | 0.00 | 50 | 1004.9 |
| 20260505100437 | 50 | 30 | 2.0 | 3.0 | 0.00 | 0.00 | 0.00 | 49 | 1004.9 |
| 20260505095933 | 50 | 352 | 2.0 | 6.0 | 0.00 | 0.00 | 0.00 | 50 | 1004.9 |
| 20260505095430 | 50 | 17 | 2.0 | 6.0 | 0.00 | 0.00 | 0.00 | 49 | 1005.0 |
| 20260505094926 | 50 | 17 | 2.0 | 5.0 | 0.00 | 0.00 | 0.00 | 49 | 1005.1 |
| 20260505094423 | 50 | 32 | 9.0 | 13.0 | 0.00 | 0.00 | 0.00 | 49 | 1005.2 |
| 20260505093919 | 51 | 17 | 4.0 | 4.0 | 0.00 | 0.00 | 0.00 | 50 | 1005.3 |
| 20260505093416 | 51 | 7 | 2.0 | 8.0 | 0.00 | 0.00 | 0.00 | 50 | 1005.0 |
| 20260505092913 | 51 | 0 | 3.0 | 7.0 | 0.00 | 0.00 | 0.00 | 49 | 1005.3 |
| 20260505092411 | 51 | 349 | 1.0 | 9.0 | 0.00 | 0.00 | 0.00 | 49 | 1004.8 |
| 20260505091908 | 51 | 30 | 5.0 | 6.0 | 0.00 | 0.00 | 0.00 | 48 | 1004.9 |
| 20260505091406 | 52 | 8 | 2.0 | 4.0 | 0.00 | 0.00 | 0.00 | 48 | 1005.0 |
| 20260505090904 | 52 | 40 | 6.0 | 8.0 | 0.00 | 0.00 | 0.00 | 46 | 1004.8 |
| 20260505090402 | 52 | 13 | 3.0 | 9.0 | 0.00 | 0.00 | 0.00 | 48 | 1004.5 |
| 20260505085859 | 52 | 30 | 2.0 | 9.0 | 0.00 | 0.00 | 0.00 | 47 | 1004.5 |
| 20260505085356 | 52 | 13 | 3.0 | 5.0 | 0.00 | 0.00 | 0.00 | 47 | 1004.6 |
| 20260505084854 | 52 | 27 | 1.0 | 6.0 | 0.00 | 0.00 | 0.00 | 47 | 1004.0 |
| 20260505084352 | 52 | 22 | 2.0 | 4.0 | 0.00 | 0.00 | 0.00 | 46 | 1004.2 |
| 20260505083850 | 52 | 358 | 2.0 | 4.0 | 0.00 | 0.00 | 0.00 | 46 | 1004.2 |
| 20260505083347 | 53 | 41 | 2.0 | 5.0 | 0.00 | 0.00 | 0.00 | 46 | 1003.6 |
| 20260505082843 | 53 | 21 | 3.0 | 8.0 | 0.00 | 0.00 | 0.00 | 45 | 1003.9 |
| 20260505082339 | 53 | 1 | 4.0 | 6.0 | 0.00 | 0.00 | 0.00 | 45 | 1003.4 |
| 20260505081836 | 53 | 18 | 2.0 | 6.0 | 0.00 | 0.00 | 0.00 | 44 | 1003.6 |
| 20260505081333 | 53 | 10 | 2.0 | 5.0 | 0.00 | 0.00 | 0.00 | 46 | 1003.4 |
| 20260505080830 | 54 | 16 | 6.0 | 6.0 | 0.00 | 0.00 | 0.00 | 44 | 1002.7 |
| 20260505080325 | 54 | 357 | 6.0 | 11.0 | 0.00 | 0.00 | 0.00 | 44 | 1003.3 |
| 20260505075821 | 54 | 10 | 7.0 | 16.0 | 0.00 | 0.00 | 0.00 | 44 | 1002.5 |
| 20260505075319 | 55 | 0 | 6.0 | 12.0 | 0.00 | 0.00 | 0.00 | 44 | 1002.7 |
| 20260505074816 | 56 | 32 | 7.0 | 9.0 | 0.00 | 0.00 | 0.00 | 44 | 1002.5 |
| 20260505074313 | 56 | 8 | 8.0 | 12.0 | 0.00 | 0.00 | 0.00 | 44 | 1002.5 |
| 20260505073810 | 56 | 336 | 2.0 | 3.0 | 0.00 | 0.00 | 0.00 | 43 | 1002.5 |
| 20260505073308 | 56 | 6 | 2.0 | 4.0 | 0.00 | 0.00 | 0.00 | 42 | 1002.6 |
| 20260505072805 | 56 | 24 | 2.0 | 4.0 | 0.00 | 0.00 | 0.00 | 43 | 1002.6 |
| 20260505072301 | 56 | 47 | 2.0 | 3.0 | 0.00 | 0.00 | 0.00 | 42 | 1002.3 |
| 20260505071756 | 57 | 333 | 0.0 | 2.0 | 0.00 | 0.00 | 0.00 | 42 | 1002.5 |
| 20260505071253 | 57 | 35 | 3.0 | 3.0 | 0.00 | 0.00 | 0.00 | 40 | 1002.0 |
| 20260505070751 | 57 | 359 | 2.0 | 3.0 | 0.00 | 0.00 | 0.00 | 40 | 1002.0 |
| 20260505070247 | 57 | 3 | 2.0 | 4.0 | 0.00 | 0.00 | 0.00 | 41 | 1001.9 |
| 20260505065743 | 57 | 306 | 2.0 | 4.0 | 0.00 | 0.00 | 0.00 | 39 | 1001.5 |
| 20260505065240 | 58 | 13 | 1.0 | 3.0 | 0.00 | 0.00 | 0.00 | 38 | 1001.7 |
| 20260505064737 | 58 | 309 | 0.0 | 2.0 | 0.00 | 0.00 | 0.00 | 39 | 1001.6 |
| 20260505064235 | 58 | 342 | 2.0 | 4.0 | 0.00 | 0.00 | 0.00 | 38 | 1001.6 |
| 20260505063732 | 58 | 245 | 0.0 | 4.0 | 0.00 | 0.00 | 0.00 | 38 | 1001.6 |
| 20260505063228 | 58 | 32 | 4.0 | 4.0 | 0.00 | 0.00 | 0.00 | 39 | 1001.8 |
| 20260505062724 | 58 | 81 | 3.0 | 3.0 | 0.00 | 0.00 | 0.00 | 39 | 1001.9 |
| 20260505062222 | 59 | 156 | 0.0 | 2.0 | 0.00 | 0.00 | 0.00 | 39 | 1002.0 |
| 20260505061719 | 59 | 31 | 0.0 | 4.0 | 0.00 | 0.00 | 0.00 | 38 | 1001.8 |
| 20260505061217 | 59 | 238 | 1.0 | 1.0 | 0.00 | 0.00 | 0.00 | 37 | 1001.7 |
| 20260505060714 | 59 | 84 | 0.0 | 5.0 | 0.00 | 0.00 | 0.00 | 39 | 1001.4 |
| 20260505060211 | 59 | 46 | 2.0 | 2.0 | 0.00 | 0.00 | 0.00 | 38 | 1001.4 |
| 20260505055706 | 59 | 67 | 2.0 | 2.0 | 0.00 | 0.00 | 0.00 | 37 | 1001.3 |
| 20260505055203 | 59 | 52 | 2.0 | 2.0 | 0.00 | 0.00 | 0.00 | 36 | 1001.2 |
| 20260505054700 | 59 | 311 | 0.0 | 2.0 | 0.00 | 0.00 | 0.00 | 36 | 1001.2 |
| 20260505054158 | 60 | 44 | 0.0 | 3.0 | 0.00 | 0.00 | 0.00 | 36 | 1001.3 |
| 20260505053656 | 60 | 4 | 3.0 | 4.0 | 0.00 | 0.00 | 0.00 | 35 | 1001.2 |
| 20260505053152 | 60 | 71 | 0.0 | 3.0 | 0.00 | 0.00 | 0.00 | 35 | 1001.1 |
| 20260505052649 | 60 | 271 | 4.0 | 4.0 | 0.00 | 0.00 | 0.00 | 34 | 1001.3 |
| 20260505052146 | 60 | 10 | 4.0 | 4.0 | 0.00 | 0.00 | 0.00 | 35 | 1001.2 |
| 20260505051643 | 61 | 339 | 3.0 | 4.0 | 0.00 | 0.00 | 0.00 | 33 | 1001.1 |
| 20260505051142 | 61 | 323 | 2.0 | 4.0 | 0.00 | 0.00 | 0.00 | 33 | 1001.1 |
| 20260505050639 | 61 | 0 | 2.0 | 3.0 | 0.00 | 0.00 | 0.00 | 33 | 1000.9 |
| 20260505050137 | 61 | 283 | 0.0 | 2.0 | 0.00 | 0.00 | 0.00 | 33 | 1000.8 |
| 20260505041607 | 63 | 301 | 3.0 | 4.0 | 0.00 | 0.01 | 0.01 | 34 | 1000.3 |
| 20260505041104 | 63 | 299 | 2.0 | 4.0 | 0.00 | 0.01 | 0.01 | 35 | 1000.5 |
| 20260505040601 | 63 | 324 | 1.0 | 4.0 | 0.00 | 0.01 | 0.01 | 38 | 1000.2 |
| 20260505040058 | 64 | 355 | 2.0 | 6.0 | 0.00 | 0.01 | 0.01 | 38 | 1000.4 |
| 20260505035554 | 64 | 244 | 0.0 | 3.0 | 0.00 | 0.01 | 0.01 | 40 | 1000.1 |
| 20260505035051 | 64 | 268 | 4.0 | 4.0 | 0.00 | 0.01 | 0.01 | 41 | 1000.0 |
| 20260505034547 | 64 | 105 | 1.0 | 3.0 | 0.00 | 0.01 | 0.01 | 40 | 1000.0 |
| 20260505034044 | 63 | 303 | 2.0 | 4.0 | 0.00 | 0.01 | 0.01 | 41 | 999.8 |
| 20260505033541 | 62 | 28 | 3.0 | 3.0 | 0.00 | 0.01 | 0.01 | 49 | 999.7 |
| 20260505033040 | 62 | 42 | 3.0 | 3.0 | 0.00 | 0.01 | 0.01 | 57 | 999.4 |
| 20260505032537 | 61 | 52 | 1.0 | 3.0 | 0.00 | 0.01 | 0.01 | 62 | 999.8 |
| 20260505032033 | 62 | 64 | 2.0 | 2.0 | 0.00 | 0.01 | 0.01 | 66 | 999.7 |
| 20260505031531 | 62 | 83 | 1.0 | 2.0 | 0.00 | 0.01 | 0.01 | 65 | 999.4 |
| 20260505031027 | 62 | 77 | 2.0 | 2.0 | 0.00 | 0.01 | 0.01 | 64 | 999.5 |
| 20260505030524 | 63 | 129 | 0.0 | 2.0 | 0.00 | 0.01 | 0.01 | 64 | 999.5 |
| 20260505030020 | 63 | 130 | 1.0 | 2.0 | 0.00 | 0.01 | 0.01 | 64 | 999.5 |
| 20260505025516 | 64 | 89 | 0.0 | 1.0 | 0.00 | 0.01 | 0.01 | 63 | 999.4 |
| 20260505025015 | 64 | 89 | 0.0 | 1.0 | 0.00 | 0.01 | 0.01 | 62 | 999.5 |
| 20260505024511 | 64 | 222 | 0.0 | 2.0 | 0.00 | 0.01 | 0.01 | 61 | 999.3 |
| 20260505024009 | 65 | 157 | 0.0 | 2.0 | 0.00 | 0.01 | 0.01 | 61 | 999.4 |
| 20260505023505 | 65 | 150 | 0.0 | 4.0 | 0.00 | 0.01 | 0.01 | 61 | 999.1 |
| 20260505023003 | 64 | 127 | 1.0 | 2.0 | 0.00 | 0.01 | 0.01 | 60 | 999.0 |
| 20260505022501 | 64 | 98 | 0.0 | 2.0 | 0.00 | 0.01 | 0.01 | 61 | 998.9 |
| 20260505021958 | 64 | 267 | 1.0 | 2.0 | 0.00 | 0.01 | 0.01 | 63 | 998.8 |
| 20260505021454 | 64 | 104 | 0.0 | 2.0 | 0.00 | 0.01 | 0.01 | 63 | 998.6 |
| 20260505020950 | 64 | 282 | 1.0 | 1.0 | 0.00 | 0.01 | 0.01 | 63 | 998.2 |
| 20260505020445 | 64 | 130 | 0.0 | 2.0 | 0.00 | 0.01 | 0.01 | 64 | 998.3 |
| 20260505015942 | 64 | 86 | 0.0 | 1.0 | 0.00 | 0.01 | 0.01 | 65 | 998.2 |
| 20260505015439 | 65 | 336 | 0.0 | 2.0 | 0.00 | 0.01 | 0.01 | 65 | 998.2 |
| 20260505014937 | 65 | 286 | 0.0 | 2.0 | 0.00 | 0.01 | 0.01 | 65 | 997.8 |
| 20260505014433 | 65 | 162 | 2.0 | 3.0 | 0.00 | 0.01 | 0.01 | 66 | 997.8 |
| 20260505013930 | 65 | 84 | 1.0 | 3.0 | 0.00 | 0.01 | 0.01 | 66 | 997.4 |
| 20260505013428 | 65 | 103 | 0.0 | 2.0 | 0.00 | 0.01 | 0.01 | 67 | 997.3 |
| 20260505012925 | 65 | 185 | 0.0 | 2.0 | 0.00 | 0.01 | 0.01 | 66 | 997.3 |
| 20260505012423 | 66 | 269 | 0.0 | 2.0 | 0.00 | 0.01 | 0.01 | 66 | 997.4 |
| 20260505011919 | 66 | 148 | 2.0 | 4.0 | 0.00 | 0.01 | 0.01 | 65 | 997.5 |
| 20260505011416 | 66 | 174 | 2.0 | 3.0 | 0.00 | 0.01 | 0.01 | 65 | 997.3 |
| 20260505010912 | 66 | 170 | 2.0 | 4.0 | 0.00 | 0.01 | 0.01 | 64 | 997.2 |
| 20260505010408 | 66 | 187 | 3.0 | 4.0 | 0.00 | 0.01 | 0.01 | 62 | 997.4 |
| 20260505005904 | 67 | 176 | 1.0 | 3.0 | 0.00 | 0.01 | 0.01 | 59 | 997.5 |
| 20260505005401 | 67 | 166 | 2.0 | 2.0 | 0.00 | 0.01 | 0.01 | 57 | 997.4 |
| 20260505004859 | 67 | 125 | 1.0 | 2.0 | 0.00 | 0.01 | 0.01 | 58 | 997.2 |
| 20260505004355 | 67 | 159 | 0.0 | 2.0 | 0.00 | 0.01 | 0.01 | 55 | 996.8 |
| 20260505003852 | 68 | 190 | 1.0 | 2.0 | 0.00 | 0.01 | 0.01 | 55 | 996.3 |
| 20260505003350 | 68 | 159 | 1.0 | 3.0 | 0.00 | 0.01 | 0.01 | 55 | 996.4 |
| 20260505002845 | 68 | 154 | 1.0 | 2.0 | 0.00 | 0.01 | 0.01 | 54 | 996.1 |
| 20260505002342 | 69 | 158 | 2.0 | 3.0 | 0.00 | 0.01 | 0.01 | 51 | 996.4 |
| 20260505001841 | 70 | 151 | 2.0 | 3.0 | 0.00 | 0.01 | 0.01 | 49 | 996.2 |
| 20260505001338 | 71 | 269 | 0.0 | 3.0 | 0.00 | 0.01 | 0.01 | 46 | 996.2 |
| 20260505000835 | 72 | 211 | 0.0 | 2.0 | 0.00 | 0.01 | 0.01 | 43 | 996.0 |
| 20260505000332 | 72 | 137 | 1.0 | 2.0 | 0.00 | 0.01 | 0.01 | 42 | 996.0 |
| 20260504235829 | 72 | 194 | 0.0 | 3.0 | 0.00 | 0.01 | 0.01 | 40 | 995.8 |
| 20260504235326 | 72 | 248 | 2.0 | 4.0 | 0.00 | 0.01 | 0.01 | 39 | 996.1 |
| 20260504234823 | 73 | 178 | 1.0 | 3.0 | 0.00 | 0.01 | 0.01 | 39 | 996.2 |
| 20260504234320 | 73 | 260 | 0.0 | 2.0 | 0.00 | 0.01 | 0.01 | 39 | 995.9 |
| 20260504233816 | 73 | 256 | 0.0 | 2.0 | 0.00 | 0.01 | 0.01 | 40 | 996.0 |
| 20260504233312 | 73 | 173 | 0.0 | 4.0 | 0.00 | 0.01 | 0.01 | 40 | 995.9 |
| 20260504232809 | 73 | 298 | 1.0 | 4.0 | 0.00 | 0.01 | 0.01 | 40 | 996.1 |
| 20260504232307 | 73 | 186 | 0.0 | 4.0 | 0.00 | 0.01 | 0.01 | 39 | 996.1 |
| 20260504231803 | 72 | 339 | 0.0 | 3.0 | 0.00 | 0.01 | 0.01 | 40 | 996.1 |
| 20260504231300 | 71 | 288 | 0.0 | 2.0 | 0.00 | 0.01 | 0.01 | 44 | 996.4 |
| 20260504230755 | 69 | 271 | 2.0 | 6.0 | 0.00 | 0.01 | 0.01 | 46 | 996.3 |